Weather History for Clinton-Sherman, OK

Change the Weather History Date:

Tuesday, January 21, 2014

  Actual Average Record
Temperature  
Mean Temperature 34 °F -  
Max Temperature 45 °F 48 °F 70 °F (2009)
Min Temperature 23 °F 27 °F 19 °F (2011)
Degree Days  
Heating Degree Days 31    
Moisture  
Dew Point 15 °F    
Average Humidity 47    
Maximum Humidity 60    
Minimum Humidity 33    
Precipitation  
Precipitation 0.00 in - - ()
Sea Level Pressure  
Sea Level Pressure 30.33 in    
Wind  
Wind Speed 13 mph (East)    
Max Wind Speed 23 mph    
Max Gust Speed 31 mph    
Visibility 10 miles    
Events      
Averages and records for this station are not official NWS values.
T = Trace of Precipitation, MM = Missing Value Source: NWS Daily Summary

Daily Weather History Graph

Daily Weather History Graph

Search for Another Location

Airport:

Trip Planner

Search our weather history database for the weather conditions in past years. The results will help you decide how hot, cold, wet, or windy it might be!

Date:

Astronomy

Jan. 21, 2014 Rise Set
Actual Time 7:42 AM CST 5:53 PM CST
Civil Twilight 7:15 AM CST 6:21 PM CST
Nautical Twilight 6:44 AM CST 6:52 PM CST
Astronomical Twilight 6:14 AM CST 7:22 PM CST
Moon 11:14 PM CST (1/21) 10:26 AM CST (1/21)
Length of Visible Light 11h 05m
Length of Day
10h 10m
Waning Gibbous, 74% of the Moon is Illuminated
Jan 21
Waning Gibbous
Jan 23
Last Quarter
Jan 30
New
Feb 6
First Quarter
Feb 14
Full

Hourly Weather History & Observations

Time (CST) Temp. Windchill Dew Point Humidity Pressure Visibility Wind Dir Wind Speed Gust Speed Precip Events Conditions
12:53 AM 39.9 °F 31.1 °F 15.1 °F 36% 30.37 in 10.0 mi North 17.3 mph - N/A   Clear
1:53 AM 35.1 °F 27.4 °F 16.0 °F 46% 30.40 in 10.0 mi North 10.4 mph - N/A   Clear
2:53 AM 33.1 °F 22.6 °F 18.0 °F 54% 30.43 in 10.0 mi North 16.1 mph - N/A   Clear
3:53 AM 30.9 °F 17.8 °F 17.1 °F 57% 30.44 in 10.0 mi North 23.0 mph 31.1 mph N/A   Clear
4:53 AM 28.9 °F 17.3 °F 15.1 °F 56% 30.45 in 10.0 mi North 16.1 mph - N/A   Clear
5:53 AM 26.1 °F 14.5 °F 14.0 °F 60% 30.46 in 10.0 mi North 13.8 mph - N/A   Clear
6:53 AM 23.0 °F 13.1 °F 10.9 °F 60% 30.49 in 10.0 mi North 9.2 mph - N/A   Clear
7:53 AM 23.0 °F 11.7 °F 10.9 °F 60% 30.51 in 10.0 mi North 11.5 mph - N/A   Clear
8:53 AM 26.1 °F 14.5 °F 10.9 °F 53% 30.48 in 10.0 mi NNE 13.8 mph - N/A   Clear
9:53 AM 27.0 °F 18.0 °F 9.0 °F 47% 30.51 in 10.0 mi NNE 9.2 mph - N/A   Clear
10:53 AM 30.0 °F 24.1 °F 8.1 °F 40% 30.48 in 10.0 mi NE 5.8 mph - N/A   Clear
11:53 AM 30.9 °F - 8.1 °F 38% 30.43 in 10.0 mi Calm Calm - N/A   Clear
12:53 PM 35.1 °F 30.1 °F 10.0 °F 35% 30.35 in 10.0 mi South 5.8 mph - N/A   Clear
1:53 PM 39.0 °F 32.3 °F 12.9 °F 34% 30.28 in 10.0 mi South 10.4 mph - N/A   Clear
2:53 PM 42.1 °F 33.9 °F 15.1 °F 34% 30.24 in 10.0 mi SSW 17.3 mph - N/A   Clear
3:53 PM 45.0 °F 38.2 °F 17.1 °F 33% 30.22 in 10.0 mi SSW 15.0 mph - N/A   Clear
4:53 PM 45.0 °F 38.5 °F 18.0 °F 34% 30.19 in 10.0 mi South 13.8 mph - N/A   Clear
5:53 PM 39.0 °F 31.4 °F 19.0 °F 45% 30.18 in 10.0 mi South 12.7 mph - N/A   Clear
6:53 PM 37.9 °F 28.9 °F 17.1 °F 43% 30.17 in 10.0 mi South 16.1 mph - N/A   Clear
7:53 PM 37.9 °F 28.9 °F 18.0 °F 45% 30.16 in 10.0 mi South 16.1 mph - N/A   Clear
8:53 PM 33.1 °F 30.0 °F 18.0 °F 54% 30.18 in 10.0 mi East 3.5 mph - N/A   Clear
9:53 PM 34.0 °F 26.0 °F 18.0 °F 52% 30.15 in 10.0 mi SSE 10.4 mph - N/A   Clear
10:53 PM 30.0 °F 24.1 °F 17.1 °F 59% 30.15 in 10.0 mi South 5.8 mph - N/A   Clear
11:53 PM 32.0 °F - 17.1 °F 54% 30.14 in 10.0 mi Calm Calm - N/A   Clear